Location: *
(51.1248°S, 108.4023°W)
Time: 01:36:15
(UTC+00:00)

Cosmos 1656 - Pass Details

Date: 29 October 2021
Orbit: 799 x 848 km, 71.1° (Epoch: 30 November)

Event Time Altitude Azimuth Distance (km) Brightness Sun altitude
Exits shadow 10:31:17 11° 328° (NNW) 2,380 5.5 -10.4°
Maximum altitude 10:36:45 82° 240° (WSW) 870 3.8 -9.7°
Drops below altitude 10° 10:42:33 10° 151° (SSE) 2,510 7.3 -8.9°
Sets 10:45:02 0° 150° (SSE) 3,453 8.2 -8.6°
